TimeAWST,TemperatureF,Dew PointF,Humidity,Sea Level PressureIn,VisibilityMPH,Wind Direction,Wind SpeedMPH,Gust SpeedMPH,PrecipitationIn,Events,Conditions,WindDirDegrees,DateUTC
12:00 AM,76,65,61,29.96,,SSW,6.9,,,,,200,2013-04-29 16:00:00
12:00 AM,75.2,64.4,69,29.95,6.2,SSW,6.9,-,N/A,,Unknown,200,2013-04-29 16:00:00
12:30 AM,73.4,64.4,73,29.95,6.2,SSW,8.1,-,N/A,,Unknown,210,2013-04-29 16:30:00
1:00 AM,75.2,64.4,69,29.95,6.2,SSW,9.2,-,N/A,,Unknown,200,2013-04-29 17:00:00
1:30 AM,73.4,64.4,73,29.92,6.2,SSW,8.1,-,N/A,,Unknown,200,2013-04-29 17:30:00
2:00 AM,73,65,71,29.94,,SSW,6.9,,,,,210,2013-04-29 18:00:00
2:00 AM,73.4,66.2,78,29.92,6.2,SSW,6.9,-,N/A,,Unknown,210,2013-04-29 18:00:00
2:30 AM,73.4,66.2,78,29.92,6.2,SSW,8.1,-,N/A,,Unknown,200,2013-04-29 18:30:00
3:00 AM,73,66,73,29.93,,SSW,8.1,,,,,200,2013-04-29 19:00:00
3:00 AM,73.4,66.2,78,29.92,6.2,SSW,8.1,-,N/A,,Unknown,200,2013-04-29 19:00:00
3:30 AM,71.6,66.2,83,29.92,6.2,South,6.9,-,N/A,,Unknown,190,2013-04-29 19:30:00
4:00 AM,71.6,66.2,83,29.92,6.2,South,8.1,-,N/A,,Unknown,190,2013-04-29 20:00:00
4:30 AM,71.6,64.4,78,29.92,6.2,South,9.2,-,N/A,,Unknown,190,2013-04-29 20:30:00
5:00 AM,71,65,76,29.94,,South,9.2,,,,,190,2013-04-29 21:00:00
5:00 AM,71.6,64.4,78,29.92,6.2,South,9.2,-,N/A,,Unknown,190,2013-04-29 21:00:00
5:30 AM,69.8,64.4,83,29.92,6.2,South,8.1,-,N/A,,Unknown,180,2013-04-29 21:30:00
6:00 AM,70,64,77,29.95,19,South,8.1,,,,Partly Cloudy,170,2013-04-29 22:00:00
6:00 AM,69.8,64.4,83,29.95,-9999.0,South,8.1,-,N/A,,Clear,170,2013-04-29 22:00:00
6:30 AM,69.8,64.4,83,29.95,-9999.0,South,8.1,-,N/A,,Clear,170,2013-04-29 22:30:00
7:00 AM,71.6,62.6,73,29.95,6.2,South,9.2,-,N/A,,Unknown,170,2013-04-29 23:00:00
7:30 AM,77.0,62.6,61,29.95,-9999.0,SSE,9.2,-,N/A,,Clear,160,2013-04-29 23:30:00
8:00 AM,83,62,39,29.97,,South,10.4,,,,,170,2013-04-30 00:00:00
8:00 AM,82.4,62.6,51,29.95,-9999.0,South,10.4,-,N/A,,Clear,170,2013-04-30 00:00:00
8:30 AM,87.8,57.2,35,29.95,-9999.0,South,11.5,-,N/A,,Clear,180,2013-04-30 00:30:00
9:00 AM,90,56,22,29.98,19,South,11.5,,,,Partly Cloudy,180,2013-04-30 01:00:00
9:00 AM,91.4,55.4,29,29.98,-9999.0,South,11.5,-,N/A,,Clear,180,2013-04-30 01:00:00
9:30 AM,93.2,55.4,28,29.98,-9999.0,South,12.7,-,N/A,,Clear,170,2013-04-30 01:30:00
10:00 AM,95.0,53.6,25,29.95,6.2,SSE,11.5,-,N/A,,Unknown,160,2013-04-30 02:00:00
10:30 AM,95.0,42.8,16,29.95,-9999.0,SE,9.2,-,N/A,,Clear,130,2013-04-30 02:30:00
11:00 AM,96,44,9,29.95,,SE,10.4,,,,,130,2013-04-30 03:00:00
11:00 AM,96.8,44.6,17,29.95,-9999.0,SE,10.4,-,N/A,,Clear,130,2013-04-30 03:00:00
11:30 AM,98.6,42.8,15,29.92,6.2,East,11.5,-,N/A,,Unknown,80,2013-04-30 03:30:00
12:00 PM,97,45,10,29.92,19,NE,12.7,,,,Partly Cloudy,50,2013-04-30 04:00:00
12:00 PM,96.8,44.6,17,29.92,-9999.0,NE,12.7,-,N/A,,Clear,50,2013-04-30 04:00:00
12:30 PM,96.8,50.0,20,29.89,-9999.0,NNE,12.7,-,N/A,,Clear,20,2013-04-30 04:30:00
1:00 PM,96.8,46.4,18,29.89,-9999.0,NNE,11.5,-,N/A,,Clear,20,2013-04-30 05:00:00
1:30 PM,98.6,41.0,14,29.89,-9999.0,NNE,12.7,-,N/A,,Clear,20,2013-04-30 05:30:00
2:00 PM,97,42,8,29.88,,NNE,13.8,,,,,20,2013-04-30 06:00:00
2:00 PM,96.8,41.0,15,29.86,-9999.0,NNE,13.8,-,N/A,,Clear,20,2013-04-30 06:00:00
2:30 PM,96.8,48.2,19,29.86,-9999.0,North,12.7,-,N/A,,Clear,360,2013-04-30 06:30:00
3:00 PM,95,51,14,29.88,19,North,15.0,,,,Partly Cloudy,350,2013-04-30 07:00:00
3:00 PM,95.0,51.8,23,29.86,-9999.0,North,15.0,-,N/A,,Clear,350,2013-04-30 07:00:00
3:30 PM,95.0,50.0,22,29.86,6.2,North,15.0,-,N/A,,Unknown,350,2013-04-30 07:30:00
4:00 PM,93.2,53.6,26,29.86,6.2,North,12.7,-,N/A,,Unknown,350,2013-04-30 08:00:00
4:30 PM,93.2,53.6,26,29.86,6.2,North,9.2,-,N/A,,Unknown,350,2013-04-30 08:30:00
5:00 PM,90,56,21,29.88,,North,8.1,,,,,350,2013-04-30 09:00:00
5:00 PM,89.6,55.4,31,29.86,6.2,North,8.1,-,N/A,,Unknown,350,2013-04-30 09:00:00
5:30 PM,87.8,57.2,35,29.89,6.2,NNW,6.9,-,N/A,,Unknown,330,2013-04-30 09:30:00
6:00 PM,84,62,37,29.91,,NW,2.3,,,,,310,2013-04-30 10:00:00
6:00 PM,84.2,62.6,48,29.89,6.2,NW,2.3,-,N/A,,Unknown,310,2013-04-30 10:00:00
6:30 PM,82.4,62.6,51,29.92,6.2,Calm,Calm,-,N/A,,Unknown,0,2013-04-30 10:30:00
7:00 PM,80.6,60.8,51,29.92,6.2,South,5.8,-,N/A,,Unknown,190,2013-04-30 11:00:00
7:30 PM,80.6,60.8,51,29.92,6.2,WSW,4.6,-,N/A,,Unknown,240,2013-04-30 11:30:00
8:00 PM,77,59,44,29.94,,West,6.9,,,,,260,2013-04-30 12:00:00
8:00 PM,77.0,59.0,54,29.92,6.2,West,6.9,-,N/A,,Unknown,260,2013-04-30 12:00:00
8:30 PM,77.0,60.8,57,29.95,6.2,WSW,6.9,-,N/A,,Unknown,250,2013-04-30 12:30:00
9:00 PM,75,60,50,29.94,,SW,6.9,,,,,220,2013-04-30 13:00:00
9:00 PM,75.2,60.8,61,29.92,6.2,SW,6.9,-,N/A,,Unknown,220,2013-04-30 13:00:00
9:30 PM,75.2,59.0,57,29.92,6.2,WSW,6.9,-,N/A,,Unknown,250,2013-04-30 13:30:00
10:00 PM,73.4,59.0,61,29.92,6.2,WSW,6.9,-,N/A,,Unknown,240,2013-04-30 14:00:00
10:30 PM,75.2,55.4,50,29.92,6.2,SSW,6.9,-,N/A,,Unknown,210,2013-04-30 14:30:00
11:00 PM,72,56,47,29.93,,South,8.1,,,,,180,2013-04-30 15:00:00
11:00 PM,71.6,55.4,57,29.92,6.2,South,8.1,-,N/A,,Unknown,180,2013-04-30 15:00:00
11:30 PM,73.4,53.6,50,29.92,6.2,South,9.2,-,N/A,,Unknown,190,2013-04-30 15:30:00